Location: Asheville, NC
(35.6000°N, 82.5500°W)
Time: 20:15:50
(UTC-04:00)

DOVE 4 - Pass Details

Date: 16 March 2018
Orbit: 590 x 802 km, 97.7° (Epoch: 24 June)

Event Time Altitude Azimuth Distance (km) Brightness Sun altitude
Rises 05:39:55 0° 18° (NNE) 3,274 ? -24.9°
Reaches altitude 10° 05:42:22 10° 24° (NNE) 2,320 ? -24.4°
Maximum altitude 05:47:20 49° 98° (E) 959 ? -23.4°
Drops below altitude 10° 05:52:00 10° 173° (S) 2,187 ? -22.5°
Sets 05:54:15 0° 179° (S) 3,068 ? -22.0°
